GW4941 Weather Reports


Display with metric or nautical units.
time (UTC)temp
F
wind
direction
speed
MPH
gust
MPH
rain 1hr
in
rain 24hr
in
rain mn
in
humidity
%
barometer
mb
20260502140123 46 316 2.0 7.0 0.00 0.00 0.00 71 1017.9
20260502130548 38 239 0.0 0.0 0.00 0.00 0.00 99 1018.0
20260502123531 35 239 0.0 0.0 0.00 0.00 0.00 99 1018.2
20260502123028 35 239 0.0 0.0 0.00 0.00 0.00 99 1018.1
20260502122525 35 239 0.0 0.0 0.00 0.00 0.00 99 1018.2
20260502122022 34 239 0.0 0.0 0.00 0.00 0.00 99 1018.4
20260502121519 34 239 0.0 0.0 0.00 0.00 0.00 99 1018.4
20260502121017 34 239 0.0 0.0 0.00 0.00 0.00 99 1018.5
20260502120513 33 218 0.0 0.0 0.00 0.00 0.00 99 1018.2
20260502115508 33 218 0.0 0.0 0.00 0.00 0.00 99 1018.3
20260502115003 33 218 0.0 0.0 0.00 0.00 0.00 99 1018.2
20260502114500 33 218 0.0 0.0 0.00 0.00 0.00 99 1018.3
20260502113957 32 218 0.0 0.0 0.00 0.00 0.00 99 1018.4
20260502113455 32 217 0.0 0.0 0.00 0.00 0.00 99 1018.2
20260502112954 32 218 0.0 0.0 0.00 0.00 0.00 99 1018.1
20260502112451 32 218 1.0 1.0 0.00 0.00 0.00 99 1018.1
20260502111948 32 258 0.0 0.0 0.00 0.00 0.00 99 1018.1
20260502111445 32 259 0.0 0.0 0.00 0.00 0.00 99 1018.0
20260502110942 32 259 0.0 0.0 0.00 0.00 0.00 99 1018.0
20260502110440 32 260 0.0 0.0 0.00 0.00 0.00 99 1017.9
20260502105937 31 260 0.0 0.0 0.00 0.00 0.00 98 1018.1
20260502105435 31 260 0.0 0.0 0.00 0.00 0.00 98 1018.3
20260502104933 31 260 0.0 0.0 0.00 0.00 0.00 98 1018.4
20260502104429 31 260 0.0 0.0 0.00 0.00 0.00 98 1018.4
20260502103926 31 260 0.0 0.0 0.00 0.00 0.00 98 1018.2
20260502103425 31 260 0.0 0.0 0.00 0.00 0.00 98 1018.1
20260502102921 31 260 0.0 0.0 0.00 0.00 0.00 98 1018.3
20260502102417 31 260 0.0 0.0 0.00 0.00 0.00 98 1018.2
20260502101915 32 260 0.0 0.0 0.00 0.00 0.00 98 1018.3
20260502101413 32 260 0.0 0.0 0.00 0.00 0.00 98 1018.2
20260502100911 32 260 0.0 0.0 0.00 0.00 0.00 98 1018.2
20260502100410 32 260 0.0 0.0 0.00 0.00 0.00 98 1018.2
20260502091343 32 216 0.0 0.0 0.00 0.00 0.00 98 1018.3
20260502090841 32 216 0.0 0.0 0.00 0.00 0.00 98 1018.2
20260502090338 32 216 0.0 0.0 0.00 0.00 0.00 98 1018.2
20260502071233 33 259 0.0 0.0 0.00 0.00 0.00 97 1017.8
20260502070731 33 259 0.0 0.0 0.00 0.00 0.00 97 1017.7
20260502070228 33 259 0.0 0.0 0.00 0.00 0.00 97 1017.7
20260502065726 33 259 0.0 0.0 0.00 0.00 0.00 97 1017.8
20260502065224 33 259 0.0 0.0 0.00 0.00 0.00 97 1017.9
20260502064723 33 259 0.0 0.0 0.00 0.00 0.00 97 1018.1
20260502064220 34 259 0.0 0.0 0.00 0.00 0.00 97 1017.9
20260502063717 34 259 0.0 0.0 0.00 0.00 0.00 97 1018.1
20260502063215 34 259 0.0 0.0 0.00 0.00 0.00 97 1018.2
20260502062712 34 259 0.0 0.0 0.00 0.00 0.00 97 1018.2
20260502062209 34 259 0.0 0.0 0.00 0.00 0.00 97 1018.1
20260502061708 34 259 0.0 0.0 0.00 0.00 0.00 97 1018.2
20260502061205 35 259 0.0 0.0 0.00 0.00 0.00 97 1018.2
20260502060700 35 260 0.0 0.0 0.00 0.00 0.00 97 1018.4
20260502060157 35 260 0.0 0.0 0.00 0.00 0.00 97 1018.2
20260502055654 35 260 0.0 0.0 0.00 0.00 0.00 97 1018.3
20260502055152 35 260 0.0 0.0 0.00 0.00 0.00 97 1018.6
20260502054651 35 260 0.0 0.0 0.00 0.00 0.00 97 1018.4
20260502054148 35 260 0.0 0.0 0.00 0.00 0.00 97 1018.3
20260502053645 35 260 0.0 0.0 0.00 0.00 0.00 97 1018.3
20260502053142 35 260 0.0 0.0 0.00 0.00 0.00 97 1018.3
20260502052640 36 260 0.0 0.0 0.00 0.00 0.00 96 1018.4
20260502052138 36 260 0.0 0.0 0.00 0.00 0.00 96 1018.7
20260502051636 36 260 0.0 0.0 0.00 0.00 0.00 96 1018.5
20260502051134 36 260 0.0 0.0 0.00 0.00 0.00 96 1018.6
20260502050630 36 260 0.0 0.0 0.00 0.00 0.00 96 1018.6
20260502050127 37 260 0.0 0.0 0.00 0.00 0.00 96 1018.8
20260502045623 37 260 0.0 0.0 0.00 0.00 0.00 96 1018.7
20260502045121 37 260 0.0 0.0 0.00 0.00 0.00 96 1018.7
20260502044617 37 260 0.0 0.0 0.00 0.00 0.00 96 1018.7
20260502044114 37 260 0.0 0.0 0.00 0.00 0.00 96 1018.7
20260502043612 37 260 0.0 0.0 0.00 0.00 0.00 95 1018.6
20260502043103 37 260 0.0 0.0 0.00 0.00 0.00 95 1018.8
20260502042602 37 259 0.0 0.0 0.00 0.00 0.00 95 1018.8
20260502042100 38 259 0.0 0.0 0.00 0.00 0.00 95 1018.7
20260502041558 38 259 0.0 0.0 0.00 0.00 0.00 95 1018.5
20260502041054 38 259 0.0 0.0 0.00 0.00 0.00 94 1018.5
20260502040551 38 260 0.0 0.0 0.00 0.00 0.00 94 1018.5
20260502040048 38 260 0.0 0.0 0.00 0.00 0.00 94 1018.5
20260502035544 39 260 0.0 0.0 0.00 0.00 0.00 94 1018.3
20260502035042 39 260 0.0 0.0 0.00 0.00 0.00 94 1018.4
20260502034540 39 259 0.0 0.0 0.00 0.00 0.00 93 1018.4
20260502034038 40 259 0.0 0.0 0.00 0.00 0.00 93 1018.5
20260502033536 40 259 0.0 0.0 0.00 0.00 0.00 93 1018.6
20260502033033 40 259 0.0 0.0 0.00 0.00 0.00 93 1018.3
20260502032528 40 259 0.0 0.0 0.00 0.00 0.00 92 1018.4
20260502032026 41 259 0.0 0.0 0.00 0.00 0.00 91 1018.3
20260502031523 41 259 0.0 0.0 0.00 0.00 0.00 91 1018.4
20260502031021 42 259 0.0 0.0 0.00 0.00 0.00 91 1018.5
20260502030520 42 258 0.0 0.0 0.00 0.00 0.00 89 1018.5
20260502030017 43 257 0.0 0.0 0.00 0.00 0.00 88 1018.4
20260502025514 43 257 0.0 0.0 0.00 0.00 0.00 87 1018.4
20260502025012 44 257 1.0 1.0 0.00 0.00 0.00 87 1018.4
20260502024509 44 246 0.0 0.0 0.00 0.00 0.00 87 1018.4
20260502024008 44 245 0.0 0.0 0.00 0.00 0.00 86 1018.3
20260502023505 44 245 0.0 0.0 0.00 0.00 0.00 84 1018.2
20260502023002 44 245 0.0 0.0 0.00 0.00 0.00 83 1018.0
20260502022459 45 245 0.0 0.0 0.00 0.00 0.00 83 1017.8
20260502021956 46 238 0.0 0.0 0.00 0.00 0.00 80 1017.8
20260502021453 46 238 0.0 0.0 0.00 0.00 0.00 79 1018.0
20260502020950 46 238 0.0 0.0 0.00 0.00 0.00 76 1018.1
20260502020448 46 241 0.0 1.0 0.00 0.00 0.00 77 1017.7
20260502015944 46 94 0.0 1.0 0.00 0.00 0.00 77 1017.7
20260502015442 46 94 0.0 0.0 0.00 0.00 0.00 77 1017.5
20260502014939 47 93 0.0 0.0 0.00 0.00 0.00 78 1017.7
20260502014436 47 126 2.0 4.0 0.00 0.00 0.00 73 1017.6
20260502013932 47 42 0.0 0.0 0.00 0.00 0.00 75 1017.4
20260502013427 48 42 0.0 2.0 0.00 0.00 0.00 75 1017.3
20260502012924 48 96 0.0 2.0 0.00 0.00 0.00 74 1017.1
20260502012422 48 353 0.0 1.0 0.00 0.00 0.00 74 1017.1
20260502011919 48 338 0.0 4.0 0.00 0.00 0.00 75 1017.1
20260502011415 48 309 0.0 2.0 0.00 0.00 0.00 73 1016.9
20260502010913 49 345 4.0 6.0 0.00 0.00 0.00 75 1016.6
20260502010409 49 321 2.0 3.0 0.00 0.00 0.00 78 1016.6
20260502005906 49 309 9.0 11.0 0.00 0.00 0.00 76 1016.4
20260502005404 49 278 0.0 4.0 0.00 0.00 0.00 76 1016.4
20260502004901 49 253 1.0 4.0 0.00 0.00 0.00 80 1016.3
20260502004357 49 181 2.0 6.0 0.00 0.00 0.00 85 1016.0
20260502003855 48 135 0.0 0.0 0.00 0.00 0.00 92 1015.8
20260502003352 48 137 0.0 0.0 0.00 0.00 0.00 92 1015.8
20260502002848 48 137 0.0 0.0 0.00 0.00 0.00 92 1015.5
20260502002345 48 137 0.0 0.0 0.00 0.00 0.00 92 1015.3
20260502001842 49 137 0.0 0.0 0.00 0.00 0.00 91 1015.3
20260502001340 49 137 0.0 0.0 0.00 0.00 0.00 91 1015.1
20260502000837 49 137 0.0 0.0 0.00 0.00 0.00 90 1014.9
20260502000335 49 137 0.0 0.0 0.00 0.00 0.00 89 1014.8
20260501235831 49 137 0.0 0.0 0.00 0.00 0.00 88 1014.8
20260501235327 49 136 0.0 0.0 0.00 0.00 0.00 86 1014.7
20260501234822 49 137 0.0 0.0 0.00 0.00 0.00 87 1014.8
20260501234320 50 137 0.0 0.0 0.00 0.00 0.00 86 1014.9
20260501233819 50 136 0.0 0.0 0.00 0.00 0.00 84 1014.6
20260501233315 50 137 0.0 0.0 0.00 0.00 0.00 85 1014.7
20260501232811 50 134 0.0 0.0 0.00 0.00 0.00 81 1014.6
20260501232308 50 134 0.0 0.0 0.00 0.00 0.00 81 1014.5
20260501231806 50 134 0.0 0.0 0.00 0.00 0.00 81 1014.6
20260501231304 50 134 0.0 0.0 0.00 0.00 0.00 82 1014.6
20260501230802 50 134 0.0 0.0 0.00 0.00 0.00 81 1014.4
20260501230300 50 134 1.0 2.0 0.00 0.00 0.00 80 1014.4
20260501225757 50 127 0.0 1.0 0.00 0.00 0.00 81 1014.6
20260501225255 50 199 0.0 0.0 0.00 0.00 0.00 81 1014.6
20260501224751 50 240 0.0 2.0 0.00 0.00 0.00 83 1014.5
20260501224248 50 120 0.0 0.0 0.00 0.00 0.00 85 1014.3
20260501223744 50 121 0.0 0.0 0.00 0.00 0.00 86 1014.5
20260501223241 50 122 0.0 0.0 0.00 0.00 0.00 85 1014.3
20260501222737 50 122 1.0 2.0 0.00 0.00 0.00 86 1014.7
20260501222234 50 110 0.0 0.0 0.00 0.00 0.00 84 1014.5
20260501221731 51 118 0.0 0.0 0.00 0.00 0.00 85 1014.6
20260501221228 51 117 0.0 1.0 0.00 0.00 0.00 80 1014.5
20260501220726 52 318 2.0 4.0 0.00 0.00 0.00 78 1014.6
20260501220223 52 103 2.0 6.0 0.00 0.00 0.00 77 1014.6
20260501215720 52 301 0.0 4.0 0.00 0.00 0.00 76 1014.4
20260501215215 53 262 2.0 6.0 0.00 0.00 0.00 74 1014.4
20260501214710 53 222 0.0 2.0 0.00 0.00 0.00 77 1014.5
20260501214207 53 204 2.0 3.0 0.00 0.00 0.00 76 1014.4
20260501213703 52 85 0.0 2.0 0.00 0.00 0.00 77 1014.5
20260501213159 53 152 2.0 6.0 0.00 0.00 0.00 77 1014.6
20260501212656 53 269 4.0 7.0 0.00 0.00 0.00 75 1014.4
20260501212153 53 341 4.0 6.0 0.00 0.00 0.00 75 1014.4
20260501211649 53 344 1.0 4.0 0.00 0.00 0.00 74 1014.2
20260501211147 54 263 2.0 10.0 0.00 0.00 0.00 72 1014.1
20260501210643 54 96 2.0 8.0 0.00 0.00 0.00 70 1014.1
20260501210140 54 322 2.0 6.0 0.00 0.00 0.00 70 1014.0
20260501205636 55 92 1.0 6.0 0.00 0.00 0.00 70 1013.7
20260501205134 54 79 0.0 4.0 0.00 0.00 0.00 70 1013.9
20260501204630 54 281 1.0 3.0 0.00 0.00 0.00 70 1013.8
20260501204126 54 96 1.0 3.0 0.00 0.00 0.00 69 1013.9
20260501203623 55 121 4.0 7.0 0.00 0.00 0.00 68 1013.6
20260501203121 55 149 1.0 3.0 0.00 0.00 0.00 68 1013.7
20260501202618 56 161 2.0 8.0 0.00 0.00 0.00 67 1013.6
20260501202114 56 298 4.0 7.0 0.00 0.00 0.00 64 1013.6
20260501201611 56 225 2.0 6.0 0.00 0.00 0.00 63 1013.4
20260501201108 57 1 2.0 8.0 0.00 0.00 0.00 61 1013.5
20260501200605 57 191 4.0 10.0 0.00 0.00 0.00 57 1013.4
20260501195600 59 107 3.0 7.0 0.00 0.00 0.00 47 1013.1
20260501195055 60 295 3.0 4.0 0.00 0.00 0.00 46 1013.0
20260501194551 60 331 5.0 8.0 0.00 0.00 0.00 44 1013.1
20260501194047 61 120 1.0 2.0 0.00 0.00 0.00 45 1012.8
20260501193544 61 184 1.0 4.0 0.00 0.00 0.00 41 1012.7
20260501193043 62 335 4.0 6.0 0.00 0.00 0.00 42 1012.6
20260501192539 61 91 7.0 11.0 0.00 0.00 0.00 41 1012.7
20260501192037 61 328 3.0 8.0 0.00 0.00 0.00 41 1012.6
20260501191534 61 338 3.0 6.0 0.00 0.00 0.00 40 1012.8
20260501191031 62 351 3.0 7.0 0.00 0.00 0.00 40 1013.1
20260501190526 63 132 3.0 6.0 0.00 0.00 0.00 37 1012.8
20260501190022 63 221 2.0 7.0 0.00 0.00 0.00 38 1012.8
20260501185519 62 23 4.0 7.0 0.00 0.00 0.00 36 1012.6
20260501185015 62 213 0.0 4.0 0.00 0.00 0.00 41 1012.7
20260501184512 63 166 3.0 9.0 0.00 0.00 0.00 37 1012.6
20260501184011 63 83 1.0 6.0 0.00 0.00 0.00 34 1012.7
20260501183509 65 92 1.0 3.0 0.00 0.00 0.00 36 1012.7
20260501183005 64 87 1.0 6.0 0.00 0.00 0.00 41 1013.0
20260501182502 63 165 3.0 7.0 0.00 0.00 0.00 36 1012.9
20260501181959 64 217 4.0 8.0 0.00 0.00 0.00 35 1013.0
20260501181456 62 101 0.0 2.0 0.00 0.00 0.00 35 1013.2
20260501180953 61 27 4.0 7.0 0.00 0.00 0.00 39 1013.0
20260501180450 62 40 3.0 8.0 0.00 0.00 0.00 35 1013.3
20260501175946 63 178 8.0 13.0 0.00 0.00 0.00 37 1013.0
20260501175443 64 54 5.0 7.0 0.00 0.00 0.00 37 1013.1
20260501174940 62 64 1.0 2.0 0.00 0.00 0.00 35 1012.7
20260501174438 63 213 10.0 14.0 0.00 0.00 0.00 32 1013.1
20260501173935 61 216 3.0 4.0 0.00 0.00 0.00 33 1013.0
20260501173432 63 47 7.0 10.0 0.00 0.00 0.00 32 1013.3
20260501172927 63 73 7.0 10.0 0.00 0.00 0.00 33 1013.2
20260501172424 62 90 5.0 9.0 0.00 0.00 0.00 36 1013.3
20260501171919 62 248 5.0 11.0 0.00 0.00 0.00 36 1013.0
20260501171415 61 64 3.0 8.0 0.00 0.00 0.00 37 1013.3
20260501170912 61 59 4.0 4.0 0.00 0.00 0.00 39 1013.5
20260501170410 62 240 5.0 10.0 0.00 0.00 0.00 38 1013.4
20260501165907 61 315 3.0 4.0 0.00 0.00 0.00 38 1013.5
20260501165405 60 283 0.0 6.0 0.00 0.00 0.00 40 1013.6
20260501164902 62 226 5.0 8.0 0.00 0.00 0.00 36 1013.6
20260501164400 62 231 2.0 2.0 0.00 0.00 0.00 40 1013.4
20260501163856 60 250 4.0 13.0 0.00 0.00 0.00 43 1013.7
20260501163352 60 271 2.0 3.0 0.00 0.00 0.00 52 1013.6
20260501162849 60 233 2.0 9.0 0.00 0.00 0.00 41 1013.9
20260501162346 59 207 3.0 7.0 0.00 0.00 0.00 42 1014.0
20260501161842 59 230 1.0 8.0 0.00 0.00 0.00 48 1013.7
20260501161339 58 307 5.0 6.0 0.00 0.00 0.00 47 1013.9
20260501160836 59 101 3.0 9.0 0.00 0.00 0.00 46 1014.0
20260501160333 60 20 3.0 6.0 0.00 0.00 0.00 49 1013.9
20260501155830 60 212 2.0 4.0 0.00 0.00 0.00 46 1013.9
20260501155327 59 236 0.0 2.0 0.00 0.00 0.00 49 1014.1
20260501154823 58 218 4.0 6.0 0.00 0.00 0.00 48 1014.5
20260501154321 58 202 3.0 7.0 0.00 0.00 0.00 52 1014.3
20260501153818 58 204 7.0 8.0 0.00 0.00 0.00 50 1014.3
20260501153316 58 241 2.0 8.0 0.00 0.00 0.00 50 1014.4
20260501152811 58 111 1.0 7.0 0.00 0.00 0.00 50 1014.5
20260501152309 57 31 2.0 3.0 0.00 0.00 0.00 55 1014.5
20260501151807 56 98 0.0 3.0 0.00 0.00 0.00 58 1014.7
20260501151302 56 150 1.0 4.0 0.00 0.00 0.00 60 1014.6
20260501150758 55 237 2.0 7.0 0.00 0.00 0.00 56 1014.8
20260501150255 55 73 0.0 6.0 0.00 0.00 0.00 60 1014.8
20260501145751 55 270 1.0 3.0 0.00 0.00 0.00 66 1014.8
20260501145249 54 68 3.0 3.0 0.00 0.00 0.00 65 1015.0
20260501144745 54 211 2.0 4.0 0.00 0.00 0.00 67 1015.1
20260501144241 54 206 2.0 6.0 0.00 0.00 0.00 68 1015.1
20260501143737 54 225 4.0 4.0 0.00 0.00 0.00 67 1015.2
20260501143235 53 103 1.0 3.0 0.00 0.00 0.00 68 1015.3
20260501142732 53 42 0.0 2.0 0.00 0.00 0.00 72 1015.4